TimePDT,TemperatureF,Dew PointF,Humidity,Sea Level PressureIn,VisibilityMPH,Wind Direction,Wind SpeedMPH,Gust SpeedMPH,PrecipitationIn,Events,Conditions,WindDirDegrees,DateUTC
12:55 AM,64.0,34.0,33,29.95,10.0,NNW,3.5,-,N/A,,Clear,330,2013-09-06 07:55:00
1:55 AM,62.1,34.0,35,29.96,10.0,North,4.6,-,N/A,,Clear,10,2013-09-06 08:55:00
2:55 AM,62.1,34.0,35,29.96,10.0,Calm,Calm,-,N/A,,Clear,0,2013-09-06 09:55:00
3:55 AM,57.0,35.1,44,29.99,10.0,Calm,Calm,-,N/A,,Clear,0,2013-09-06 10:55:00
4:55 AM,57.9,35.1,42,30.00,10.0,Calm,Calm,-,N/A,,Clear,0,2013-09-06 11:55:00
5:55 AM,54.0,37.0,53,30.02,10.0,SSW,3.5,-,N/A,,Clear,200,2013-09-06 12:55:00
6:55 AM,53.1,36.0,52,30.04,10.0,Calm,Calm,-,N/A,,Clear,0,2013-09-06 13:55:00
7:55 AM,57.9,35.1,42,30.06,10.0,Calm,Calm,-,N/A,,Clear,0,2013-09-06 14:55:00
8:55 AM,63.0,33.1,33,30.06,10.0,Calm,Calm,-,N/A,,Clear,0,2013-09-06 15:55:00
9:55 AM,64.9,34.0,32,30.05,10.0,Calm,Calm,-,N/A,,Clear,0,2013-09-06 16:55:00
10:55 AM,69.1,33.1,26,30.03,10.0,East,5.8,-,N/A,,Clear,100,2013-09-06 17:55:00
11:55 AM,73.9,34.0,23,29.99,10.0,NE,3.5,-,N/A,,Clear,40,2013-09-06 18:55:00
12:55 PM,79.0,36.0,21,29.96,10.0,Variable,3.5,-,N/A,,Partly Cloudy,0,2013-09-06 19:55:00
1:55 PM,82.9,36.0,19,29.93,10.0,Calm,Calm,-,N/A,,Partly Cloudy,0,2013-09-06 20:55:00
2:55 PM,84.0,34.0,17,29.90,10.0,Variable,3.5,-,N/A,,Partly Cloudy,0,2013-09-06 21:55:00
3:55 PM,86.0,35.1,16,29.88,10.0,NNE,4.6,-,N/A,,Partly Cloudy,30,2013-09-06 22:55:00
4:55 PM,87.1,34.0,15,29.87,10.0,North,13.8,-,N/A,,Partly Cloudy,360,2013-09-06 23:55:00
5:55 PM,84.0,34.0,17,29.88,10.0,NNE,10.4,20.7,N/A,,Partly Cloudy,30,2013-09-07 00:55:00
6:55 PM,82.0,33.1,17,29.89,10.0,NNE,11.5,-,N/A,,Clear,20,2013-09-07 01:55:00
7:55 PM,78.1,34.0,20,29.92,10.0,North,10.4,-,N/A,,Clear,10,2013-09-07 02:55:00
8:55 PM,75.9,33.1,21,29.94,10.0,NW,5.8,-,N/A,,Clear,320,2013-09-07 03:55:00
9:55 PM,73.9,33.1,22,29.95,10.0,Calm,Calm,-,N/A,,Clear,0,2013-09-07 04:55:00
10:55 PM,69.1,36.0,30,29.96,10.0,SSW,3.5,-,N/A,,Clear,210,2013-09-07 05:55:00
11:55 PM,69.1,35.1,29,29.95,10.0,West,4.6,-,N/A,,Clear,280,2013-09-07 06:55:00